Home > Weather > Cambridge > Past weeks

Flag for USA Weather for the Past 2 Weeks in Cambridge, Massachusetts, USA

Now
42 °F

Passing clouds.


Feels Like: 38 °F
Forecast: 39 / 60 °F
Wind: 6 mph from South

Location: Logan International Airport

Current Time: Apr 30, 2016 at 3:51:21 AM

Latest Report: Apr 30, 2016 at 2:54 AM


Visibility: 10 mi

Pressure: 30.18 "Hg

Humidity: 68%

Dew Point: 32 °F

Location of CambridgeLocation

Historic Weather in Cambridge — Graph

°F

Cambridge Temperature Yesterday

Maximum temperature yesterday: 50 °F (at 11:54 AM)
Minimum temperature yesterday: 44 °F (at 2:54 AM)
Average temperature yesterday: 47 °F

High & Low Weather Summary for the Past Weeks

 TemperatureHumidityPressure
High78 °F (Apr 22, 3:54 PM)90% (Apr 23, 1:54 AM)30.49 "Hg (Apr 23, 1:54 AM)
Low37 °F (Apr 26, 7:54 PM)13% (Apr 21, 3:54 PM)29.75 "Hg (Apr 26, 11:54 AM)
Average50 °F55%30.08 "Hg
* Reported Apr 15 1:54 AM — Apr 30 1:54 AM, Cambridge, Weather by CustomWeather, © 2016

Note: Actual official high and low records may vary slightly from our data, if they occured in-between our weather recording intervals... More about our weather records

Advertising

Cambridge Weather History for the Previous 24 Hours

Scroll right to see more
 ConditionsComfort  
Time TempWeatherWind HumidityBarometerVisibility
1:54 AM
Sat, Apr 30
44 °FPassing clouds.7 mph60%30.18 "Hg10 mi
12:54 AM45 °FPassing clouds.6 mph56%30.17 "Hg10 mi
11:54 PM
Fri, Apr 29
45 °FPassing clouds.8 mph53%30.17 "Hg10 mi
10:54 PM45 °FPassing clouds.9 mph56%30.16 "Hg10 mi
9:54 PM46 °FPassing clouds.7 mph58%30.15 "Hg10 mi
8:54 PM46 °FPassing clouds.10 mph58%30.15 "Hg10 mi
7:54 PM47 °FBroken clouds.14 mph54%30.13 "Hg10 mi
6:54 PM47 °FBroken clouds.17 mph59%30.13 "Hg10 mi
5:54 PM48 °FScattered clouds.20 mph66%30.13 "Hg10 mi
4:54 PM48 °FScattered clouds.18 mph63%30.13 "Hg10 mi
3:54 PM49 °FScattered clouds.20 mph61%30.12 "Hg10 mi
2:54 PM50 °FScattered clouds.20 mph59%30.13 "Hg10 mi
1:54 PM49 °FScattered clouds.20 mph59%30.16 "Hg10 mi
12:54 PM50 °FPartly sunny.17 mph52%30.17 "Hg10 mi
11:54 AM50 °FPartly sunny.16 mph50%30.19 "Hg10 mi
10:54 AM49 °FScattered clouds.15 mph57%30.20 "Hg10 mi
9:54 AM48 °FBroken clouds.13 mph59%30.19 "Hg10 mi
8:54 AM47 °FBroken clouds.12 mph66%30.19 "Hg10 mi
7:54 AM46 °FBroken clouds.12 mph68%30.19 "Hg10 mi
6:54 AM46 °FPartly sunny.9 mph73%30.17 "Hg10 mi
5:54 AM45 °FPartly cloudy.8 mph76%30.15 "Hg10 mi
4:54 AM44 °FPassing clouds.5 mph73%30.14 "Hg10 mi
3:54 AM44 °FClear.7 mph73%30.13 "Hg10 mi
Weather by CustomWeather, © 2016

See weather overviewHow to use our weather pages